Regional Weather Roundup
Issued by NWS

Home | Current Version | Previous Version | Graphics & Text | Print | Product List | Glossary On
Versions: 1 2 3 4 5 6 7 8 9 10 11 12 13 14 15 16 17 18 19 20 21 22 23 24 25 26 27 28 29 30 31 32 33 34 35 36 37 38 39 40 41 42 43 44 45 46 47 48 49 50
000
ASUS43 KLSX 031757
RWRMO

WEATHER SUMMARY FOR MISSOURI
NATIONAL WEATHER SERVICE SPRINGFIELD MO
100 PM CDT TUE MAY 03 2016

NOTE: "FAIR" INDICATES FEW OR NO CLOUDS BELOW 12,000 FEET WITH NO
       SIGNIFICANT WEATHER AND/OR OBSTRUCTIONS TO VISIBILITY.
       CURRENT SKY AND/OR WEATHER CONDITIONS ARE NOT AVAILABLE FOR
       CHILLICOTHE AND FARMINGTON.

MOZ001>031-035>038-043-044-053-054-031900-
...NORTHERN AND WESTERN MISSOURI...

CITY           SKY/WX    TMP DP  RH WIND       PRES   REMARKS
KANSAS CTY INT PTSUNNY   66  43  43 SW8       30.06F
6HR MIN TEMP:  44; 6HR MAX TEMP:  66;

LEE`S SUMMIT   MOSUNNY   66  41  40 CALM      30.06F
6HR MIN TEMP:  44; 6HR MAX TEMP:  66;

ST JOSEPH      PTSUNNY   66  40  38 SW10      30.05F
6HR MIN TEMP:  42; 6HR MAX TEMP:  66;

CHILLICOTHE      N/A     65  44  46 NW9       30.04F
6HR MIN TEMP:  41; 6HR MAX TEMP:  67;


$$
MOZ066>068-077>081-088>096-101>105-031900-
...SOUTHWEST MISSOURI...

CITY           SKY/WX    TMP DP  RH WIND       PRES   REMARKS
SPRINGFIELD    MOSUNNY   61  41  47 MISG      30.07F
6HR MIN TEMP:  45; 6HR MAX TEMP:  63;

JOPLIN         SUNNY     64  40  41 CALM      30.09F
6HR MIN TEMP:  41; 6HR MAX TEMP:  65;

BRANSON        PTSUNNY   63  39  42 N12       30.08F

$$
MOZ032>034-039>042-045>050-055>058-069>072-031900-
...CENTRAL MISSOURI...

CITY           SKY/WX    TMP DP  RH WIND       PRES   REMARKS
COLUMBIA       NOT AVBL
JEFFERSON CITY MOSUNNY   62  45  53 NW8       30.04F
6HR MIN TEMP:  45; 6HR MAX TEMP:  63;

ROLLA          PTSUNNY   60  46  59 NW6       30.03F
6HR MIN TEMP:  47; 6HR MAX TEMP:  61;

SEDALIA        MOSUNNY   65  45  48 NW9       30.07F
6HR MIN TEMP:  46; 6HR MAX TEMP:  65;

WARRENSBURG    SUNNY     64  39  39 NW6       30.06

$$
MOZ051-052-059>065-031900-
...EAST CENTRAL MISSOURI...

CITY           SKY/WX    TMP DP  RH WIND       PRES   REMARKS
ST LOUIS INTL  PTSUNNY   62  43  49 NW8       30.02F
6HR MIN TEMP:  53; 6HR MAX TEMP:  64;


$$
MOZ072>076-082>087-097>100-106>115-031900-
...SOUTH CENTRAL AND SOUTHEAST MISSOURI...

CITY           SKY/WX    TMP DP  RH WIND       PRES   REMARKS
CAPE GIRARDEAU CLOUDY    62  45  53 CALM      30.01F
6HR MIN TEMP:  53; 6HR MAX TEMP:  63;

POPLAR BLUFF   CLOUDY    63  48  58 NW9       30.02F
6HR MIN TEMP:  53; 6HR MAX TEMP:  63;

WEST PLAINS    PTSUNNY   61  43  51 MISG      30.05F
6HR MIN TEMP:  50; 6HR MAX TEMP:  63;


$$



USA.gov is the U.S. government's official web portal to all federal, state and local government web resources and services.